全球星 M051星 (GLOBALSTAR M051)

导读 | 星芒AI

GLOBALSTAR M051 是 Globalstar 卫星通信公司部署的一颗低轨移动通信卫星,属于第二代星座系统(Globalstar 2)。该卫星运行在约1414公里高度的近极地轨道,主要用于提供全球范围的语音和数据通信服务,特别是在偏远地区和海上。M051 采用先进的卫星技术,支持点对多点通信,增强系统容量和可靠性,为用户提供稳定的移动通信连接。

基本信息
目录编号:
25853
目录名称:
GLOBALSTAR M051
国际标识:
1999-037C
轨道中心:
EARTH
卫星名称:
全球星 M051星
卫星全名:
全球星 M051星 (GLOBALSTAR M051)
卫星状态:
在轨 (已飞行9608 天)
发射日期:
1999-07-10 UTC
国别 :
(GLOB)
星等 :
--
轨道信息
数据来源 国际轨道数据 AOE轨道数据
星历时间 2025-10-28T20:16:28+0800
1天前
查看轨道信息
2025-10-28T05:00:00+0800
1天前
查看轨道信息
半长轴 8328.607km 8328.605km
偏心率 0.0001377 0.0001444
轨道倾角 51.978° 51.979°
近地点辐角 103.981° 102.254°
升交点赤经 79.258° 80.794°
平近点角 256.115° 159.725°
近地点 1949.325km 1949.267km
远地点 1951.619km 1951.673km
周期 126.072分钟 126.072分钟
每日圈数 11.422056 11.422059
详细信息
固有亮度:
5
最大亮度:
7.9
平衡模式:
三轴稳定
覆盖范围:
全球
运营商:
全球星公司
运营商所在国:
美国
使用方式:
暂无
卫星简介
全球星星座由48颗卫星加8颗备份星组成。这些卫星分布在8个倾角为52度的圆形轨道平面上,每个轨道平面6颗卫星,另有1 颗备用星。轨道高度约为1414km,传输时延和处理时延小于300ms,整个系统的覆盖区为南北纬70度以内的地区。该卫星已退役。
2D轨道图
3D轨道图
轨道高度分析图
轨道倾角分析图
轨道综合分析图
查看轨道综合分析图